Time,TemperatureF,DewpointF,PressureIn,WindDirection,WindDirectionDegrees,WindSpeedMPH,WindSpeedGustMPH,Humidity,HourlyPrecipIn,Conditions,Clouds,dailyrainin,SoftwareType,DateUTC
2013-02-07 00:03:00,50.4,39.9,29.88,South,180,0.0,0.0,67,0.08,,,0.05,WUHU216HW,2013-02-07 06:03:00,
2013-02-07 00:08:00,49.1,39.4,29.89,South,180,0.0,0.0,69,0.10,,,0.10,WUHU216HW,2013-02-07 06:08:00,
2013-02-07 00:13:00,48.2,39.6,29.89,South,180,0.0,0.0,72,0.10,,,0.10,WUHU216HW,2013-02-07 06:13:00,
2013-02-07 00:18:00,47.9,39.6,29.89,South,180,0.0,0.0,73,0.10,,,0.10,WUHU216HW,2013-02-07 06:18:00,
2013-02-07 00:23:00,47.3,39.4,29.89,South,180,0.0,0.0,74,0.10,,,0.10,WUHU216HW,2013-02-07 06:23:00,
2013-02-07 00:28:00,47.0,39.4,29.89,South,180,0.0,0.0,75,0.10,,,0.10,WUHU216HW,2013-02-07 06:28:00,
2013-02-07 00:33:00,46.8,39.6,29.88,South,180,0.0,0.0,76,0.10,,,0.10,WUHU216HW,2013-02-07 06:33:00,
2013-02-07 00:38:00,46.8,40.3,29.89,South,180,0.0,0.0,78,0.10,,,0.10,WUHU216HW,2013-02-07 06:38:00,
2013-02-07 00:44:00,46.8,40.0,29.89,South,180,0.0,0.0,77,0.10,,,0.10,WUHU216HW,2013-02-07 06:44:00,
2013-02-07 00:49:00,46.8,40.3,29.89,South,180,0.0,0.0,78,0.10,,,0.10,WUHU216HW,2013-02-07 06:49:00,
2013-02-07 00:54:00,46.8,40.3,29.89,South,180,0.0,0.0,78,0.10,,,0.10,WUHU216HW,2013-02-07 06:54:00,
2013-02-07 00:59:00,46.8,40.7,29.88,South,180,0.0,0.0,79,0.10,,,0.10,WUHU216HW,2013-02-07 06:59:00,
2013-02-07 01:04:00,46.6,40.1,29.88,South,180,0.0,0.0,78,0.00,,,0.10,WUHU216HW,2013-02-07 07:04:00,
2013-02-07 01:09:00,46.4,40.3,29.88,South,180,0.0,0.0,79,0.00,,,0.10,WUHU216HW,2013-02-07 07:09:00,
2013-02-07 01:14:00,46.3,40.1,29.87,South,180,0.0,0.0,79,0.00,,,0.10,WUHU216HW,2013-02-07 07:14:00,
2013-02-07 01:19:00,46.3,40.1,29.87,South,180,0.0,0.0,79,0.00,,,0.10,WUHU216HW,2013-02-07 07:19:00,
2013-02-07 01:24:00,46.3,40.1,29.87,South,180,0.0,0.0,79,0.00,,,0.10,WUHU216HW,2013-02-07 07:24:00,
2013-02-07 01:29:00,46.1,40.3,29.87,South,180,0.0,0.0,80,0.00,,,0.10,WUHU216HW,2013-02-07 07:29:00,
2013-02-07 01:34:00,46.3,40.5,29.86,South,180,0.0,0.0,80,0.00,,,0.10,WUHU216HW,2013-02-07 07:34:00,
2013-02-07 01:39:00,46.3,40.5,29.86,South,180,0.0,0.0,80,0.00,,,0.10,WUHU216HW,2013-02-07 07:39:00,
2013-02-07 01:44:00,46.1,40.6,29.86,South,180,0.0,0.0,81,0.00,,,0.10,WUHU216HW,2013-02-07 07:44:00,
2013-02-07 01:49:00,46.1,40.3,29.85,South,180,0.0,0.0,80,0.00,,,0.10,WUHU216HW,2013-02-07 07:49:00,
2013-02-07 01:54:00,45.9,40.1,29.84,South,180,0.0,0.0,80,0.00,,,0.10,WUHU216HW,2013-02-07 07:54:00,
2013-02-07 01:59:00,45.7,40.0,29.85,South,180,0.0,0.0,80,0.00,,,0.10,WUHU216HW,2013-02-07 07:59:00,
2013-02-07 02:05:00,45.7,40.0,29.85,South,180,0.0,0.0,80,0.00,,,0.10,WUHU216HW,2013-02-07 08:05:00,
2013-02-07 02:10:00,45.7,39.6,29.85,South,180,0.0,0.0,79,0.00,,,0.10,WUHU216HW,2013-02-07 08:10:00,
2013-02-07 02:15:00,45.5,39.4,29.84,South,180,0.0,0.0,79,0.00,,,0.10,WUHU216HW,2013-02-07 08:15:00,
2013-02-07 02:20:00,45.4,39.2,29.85,South,180,0.0,0.0,79,0.00,,,0.10,WUHU216HW,2013-02-07 08:20:00,
2013-02-07 02:25:00,45.2,39.1,29.85,South,180,0.0,0.0,79,0.00,,,0.10,WUHU216HW,2013-02-07 08:25:00,
2013-02-07 02:30:00,45.0,38.9,29.85,South,180,0.0,0.0,79,0.00,,,0.10,WUHU216HW,2013-02-07 08:30:00,
2013-02-07 02:35:00,45.0,39.2,29.86,South,180,0.0,0.0,80,0.00,,,0.10,WUHU216HW,2013-02-07 08:35:00,
2013-02-07 02:40:00,45.2,39.4,29.85,South,180,0.0,0.0,80,0.00,,,0.10,WUHU216HW,2013-02-07 08:40:00,
2013-02-07 02:45:00,45.2,39.4,29.85,South,180,0.0,0.0,80,0.00,,,0.10,WUHU216HW,2013-02-07 08:45:00,
2013-02-07 02:50:00,45.4,39.6,29.85,South,180,0.0,0.0,80,0.00,,,0.10,WUHU216HW,2013-02-07 08:50:00,
2013-02-07 02:55:00,45.4,39.6,29.85,South,180,0.0,0.0,80,0.00,,,0.10,WUHU216HW,2013-02-07 08:55:00,
2013-02-07 03:00:00,45.5,39.8,29.84,South,180,0.0,0.0,80,0.00,,,0.10,WUHU216HW,2013-02-07 09:00:00,
2013-02-07 03:05:00,45.7,40.0,29.84,South,180,0.0,0.0,80,0.00,,,0.10,WUHU216HW,2013-02-07 09:05:00,
2013-02-07 03:10:00,45.7,40.0,29.84,South,180,0.0,0.0,80,0.01,,,0.11,WUHU216HW,2013-02-07 09:10:00,
2013-02-07 03:15:00,45.7,40.0,29.85,South,180,0.0,0.0,80,0.01,,,0.11,WUHU216HW,2013-02-07 09:15:00,
2013-02-07 03:20:00,45.7,40.0,29.85,South,180,0.0,0.0,80,0.01,,,0.11,WUHU216HW,2013-02-07 09:20:00,
2013-02-07 03:26:00,45.7,40.0,29.85,South,180,0.0,0.0,80,0.01,,,0.11,WUHU216HW,2013-02-07 09:26:00,
2013-02-07 03:31:00,45.7,40.0,29.85,South,180,0.0,0.0,80,0.01,,,0.11,WUHU216HW,2013-02-07 09:31:00,
2013-02-07 03:36:00,45.9,39.8,29.86,South,180,0.0,0.0,79,0.01,,,0.11,WUHU216HW,2013-02-07 09:36:00,
2013-02-07 03:41:00,46.1,40.0,29.85,South,180,0.0,0.0,79,0.01,,,0.11,WUHU216HW,2013-02-07 09:41:00,
2013-02-07 03:46:00,46.1,40.0,29.85,South,180,0.0,0.0,79,0.01,,,0.11,WUHU216HW,2013-02-07 09:46:00,
2013-02-07 03:51:00,46.1,40.0,29.85,South,180,0.0,0.0,79,0.01,,,0.11,WUHU216HW,2013-02-07 09:51:00,
2013-02-07 03:56:00,45.9,39.8,29.85,South,180,0.0,0.0,79,0.01,,,0.11,WUHU216HW,2013-02-07 09:56:00,
2013-02-07 04:01:00,45.7,40.0,29.85,South,180,0.0,0.0,80,0.01,,,0.11,WUHU216HW,2013-02-07 10:01:00,
2013-02-07 04:06:00,45.7,40.2,29.86,South,180,0.0,0.0,81,0.01,,,0.11,WUHU216HW,2013-02-07 10:06:00,
2013-02-07 04:11:00,45.7,40.2,29.85,South,180,0.0,0.0,81,0.00,,,0.11,WUHU216HW,2013-02-07 10:11:00,
2013-02-07 04:16:00,45.7,40.6,29.85,South,180,0.0,0.0,82,0.00,,,0.11,WUHU216HW,2013-02-07 10:16:00,
2013-02-07 04:21:00,45.7,40.9,29.84,South,180,0.0,0.0,83,0.00,,,0.11,WUHU216HW,2013-02-07 10:21:00,
2013-02-07 04:26:00,45.5,41.1,29.84,South,180,0.0,0.0,84,0.00,,,0.11,WUHU216HW,2013-02-07 10:26:00,
2013-02-07 04:31:00,45.5,41.1,29.84,South,180,0.0,0.0,84,0.00,,,0.11,WUHU216HW,2013-02-07 10:31:00,
2013-02-07 04:37:00,45.4,41.1,29.83,South,180,0.0,0.0,85,0.00,,,0.11,WUHU216HW,2013-02-07 10:37:00,
2013-02-07 04:42:00,45.4,41.1,29.83,South,180,0.0,0.0,85,0.16,,,0.11,WUHU216HW,2013-02-07 10:42:00,
2013-02-07 04:47:00,45.4,41.1,29.83,South,180,0.0,0.0,85,0.16,,,0.27,WUHU216HW,2013-02-07 10:47:00,
2013-02-07 04:52:00,45.2,41.0,29.84,South,180,0.0,0.0,85,0.18,,,0.29,WUHU216HW,2013-02-07 10:52:00,
2013-02-07 04:57:00,45.2,41.2,29.83,South,180,0.0,0.0,86,0.19,,,0.30,WUHU216HW,2013-02-07 10:57:00,
2013-02-07 05:02:00,45.2,41.2,29.84,South,180,0.0,0.0,86,0.20,,,0.31,WUHU216HW,2013-02-07 11:02:00,
2013-02-07 05:07:00,45.2,41.2,29.83,South,180,0.0,0.0,86,0.21,,,0.32,WUHU216HW,2013-02-07 11:07:00,
2013-02-07 05:12:00,45.2,41.2,29.83,South,180,0.0,0.0,86,0.22,,,0.33,WUHU216HW,2013-02-07 11:12:00,
2013-02-07 05:17:00,45.2,41.2,29.83,South,180,0.0,0.0,86,0.23,,,0.34,WUHU216HW,2013-02-07 11:17:00,
2013-02-07 05:22:00,45.2,41.2,29.83,South,180,0.0,0.0,86,0.25,,,0.35,WUHU216HW,2013-02-07 11:22:00,
2013-02-07 05:27:00,45.2,41.2,29.83,South,180,0.0,0.0,86,0.28,,,0.37,WUHU216HW,2013-02-07 11:27:00,
2013-02-07 05:32:00,45.2,41.2,29.84,South,180,0.0,0.0,86,0.30,,,0.40,WUHU216HW,2013-02-07 11:32:00,
2013-02-07 05:38:00,45.2,41.6,29.84,South,180,0.0,0.0,87,0.33,,,0.42,WUHU216HW,2013-02-07 11:38:00,
2013-02-07 05:43:00,45.4,41.8,29.84,South,180,0.0,0.0,87,0.19,,,0.46,WUHU216HW,2013-02-07 11:43:00,
2013-02-07 05:48:00,45.4,42.0,29.84,South,180,0.0,0.0,88,0.22,,,0.49,WUHU216HW,2013-02-07 11:48:00,
2013-02-07 05:53:00,45.5,42.2,29.83,South,180,0.0,0.0,88,0.21,,,0.51,WUHU216HW,2013-02-07 11:53:00,
2013-02-07 05:58:00,45.7,42.4,29.84,South,180,0.0,0.0,88,0.26,,,0.56,WUHU216HW,2013-02-07 11:58:00,
2013-02-07 06:03:00,45.7,42.4,29.83,South,180,0.0,0.0,88,0.30,,,0.59,WUHU216HW,2013-02-07 12:03:00,
2013-02-07 06:08:00,45.7,42.4,29.84,South,180,0.0,0.0,88,0.30,,,0.63,WUHU216HW,2013-02-07 12:08:00,
2013-02-07 06:13:00,45.9,42.6,29.84,South,180,0.0,0.0,88,0.33,,,0.68,WUHU216HW,2013-02-07 12:13:00,
2013-02-07 06:18:00,46.1,42.8,29.84,South,180,0.0,0.0,88,0.35,,,0.70,WUHU216HW,2013-02-07 12:18:00,
2013-02-07 06:23:00,46.1,42.8,29.83,South,180,0.0,0.0,88,0.37,,,0.74,WUHU216HW,2013-02-07 12:23:00,
2013-02-07 06:28:00,46.1,42.8,29.84,South,180,0.0,0.0,88,0.37,,,0.77,WUHU216HW,2013-02-07 12:28:00,
2013-02-07 06:33:00,46.3,42.9,29.84,South,180,0.0,0.0,88,0.42,,,0.82,WUHU216HW,2013-02-07 12:33:00,
2013-02-07 06:38:00,46.3,42.9,29.84,South,180,0.0,0.0,88,0.42,,,0.86,WUHU216HW,2013-02-07 12:38:00,
2013-02-07 06:43:00,46.3,42.9,29.84,South,180,0.0,0.0,88,0.41,,,0.88,WUHU216HW,2013-02-07 12:43:00,
2013-02-07 06:49:00,46.3,42.9,29.84,South,180,0.0,0.0,88,0.37,,,0.89,WUHU216HW,2013-02-07 12:49:00,
2013-02-07 06:54:00,46.4,43.1,29.84,South,180,0.0,0.0,88,0.33,,,0.89,WUHU216HW,2013-02-07 12:54:00,
2013-02-07 06:59:00,46.4,43.1,29.84,South,180,0.0,0.0,88,0.30,,,0.89,WUHU216HW,2013-02-07 12:59:00,
2013-02-07 07:04:00,46.4,43.1,29.84,South,180,0.0,0.0,88,0.28,,,0.89,WUHU216HW,2013-02-07 13:04:00,
2013-02-07 07:09:00,46.4,43.1,29.84,South,180,0.0,0.0,88,0.22,,,0.90,WUHU216HW,2013-02-07 13:09:00,
2013-02-07 07:14:00,46.4,43.1,29.84,South,180,0.0,0.0,88,0.20,,,0.90,WUHU216HW,2013-02-07 13:14:00,
2013-02-07 07:19:00,46.4,43.5,29.84,South,180,0.0,0.0,89,0.16,,,0.90,WUHU216HW,2013-02-07 13:19:00,
2013-02-07 07:24:00,46.4,43.1,29.85,South,180,0.0,0.0,88,0.14,,,0.90,WUHU216HW,2013-02-07 13:24:00,
2013-02-07 07:29:00,46.6,43.7,29.85,South,180,0.0,0.0,89,0.08,,,0.90,WUHU216HW,2013-02-07 13:29:00,
2013-02-07 07:34:00,46.6,43.7,29.85,South,180,0.0,0.0,89,0.06,,,0.90,WUHU216HW,2013-02-07 13:34:00,
2013-02-07 07:39:00,46.6,43.7,29.85,South,180,0.0,0.0,89,0.03,,,0.90,WUHU216HW,2013-02-07 13:39:00,
2013-02-07 07:44:00,46.6,43.7,29.85,South,180,0.0,0.0,89,0.02,,,0.90,WUHU216HW,2013-02-07 13:44:00,
2013-02-07 07:49:00,46.6,43.7,29.85,South,180,0.0,0.0,89,0.01,,,0.90,WUHU216HW,2013-02-07 13:49:00,
2013-02-07 07:54:00,46.6,43.7,29.85,South,180,0.0,0.0,89,0.02,,,0.91,WUHU216HW,2013-02-07 13:54:00,
2013-02-07 07:59:00,46.6,43.7,29.86,South,180,0.0,0.0,89,0.04,,,0.92,WUHU216HW,2013-02-07 13:59:00,
2013-02-07 08:04:00,46.6,43.7,29.86,South,180,0.0,0.0,89,0.04,,,0.93,WUHU216HW,2013-02-07 14:04:00,
2013-02-07 08:10:00,46.8,43.8,29.86,South,180,0.0,0.0,89,0.04,,,0.94,WUHU216HW,2013-02-07 14:10:00,
2013-02-07 08:15:00,46.8,43.8,29.87,South,180,0.0,0.0,89,0.06,,,0.96,WUHU216HW,2013-02-07 14:15:00,
2013-02-07 08:20:00,46.8,43.8,29.87,South,180,0.0,0.0,89,0.07,,,0.97,WUHU216HW,2013-02-07 14:20:00,
2013-02-07 08:25:00,47.0,44.0,29.88,South,180,0.0,0.0,89,0.08,,,0.98,WUHU216HW,2013-02-07 14:25:00,
2013-02-07 08:30:00,47.0,44.0,29.88,South,180,0.0,0.0,89,0.10,,,0.99,WUHU216HW,2013-02-07 14:30:00,
2013-02-07 08:35:00,47.2,44.2,29.88,South,180,0.0,0.0,89,0.11,,,1.01,WUHU216HW,2013-02-07 14:35:00,
2013-02-07 08:40:00,47.2,44.2,29.88,South,180,0.0,0.0,89,0.12,,,1.02,WUHU216HW,2013-02-07 14:40:00,
2013-02-07 08:45:00,47.2,44.2,29.88,South,180,0.0,0.0,89,0.13,,,1.03,WUHU216HW,2013-02-07 14:45:00,
2013-02-07 08:50:00,47.2,44.2,29.88,South,180,0.0,0.0,89,0.13,,,1.04,WUHU216HW,2013-02-07 14:50:00,
2013-02-07 08:55:00,47.2,44.5,29.88,South,180,0.0,0.0,90,0.12,,,1.04,WUHU216HW,2013-02-07 14:55:00,
2013-02-07 09:00:00,47.2,44.2,29.88,South,180,0.0,0.0,89,0.11,,,1.04,WUHU216HW,2013-02-07 15:00:00,
2013-02-07 09:06:00,47.5,44.8,29.88,South,180,0.0,0.0,90,0.11,,,1.05,WUHU216HW,2013-02-07 15:06:00,
2013-02-07 09:11:00,47.5,44.8,29.89,South,180,0.0,0.0,90,0.11,,,1.06,WUHU216HW,2013-02-07 15:11:00,
2013-02-07 09:16:00,47.5,44.8,29.88,South,180,0.0,0.0,90,0.10,,,1.06,WUHU216HW,2013-02-07 15:16:00,
2013-02-07 09:21:00,47.5,44.8,29.88,South,180,0.0,0.0,90,0.10,,,1.08,WUHU216HW,2013-02-07 15:21:00,
2013-02-07 09:26:00,47.7,45.0,29.88,South,180,0.0,0.0,90,0.10,,,1.09,WUHU216HW,2013-02-07 15:26:00,
2013-02-07 09:31:00,47.9,45.5,29.88,South,180,0.0,0.0,91,0.10,,,1.10,WUHU216HW,2013-02-07 15:31:00,
2013-02-07 09:36:00,47.9,45.5,29.88,South,180,0.0,0.0,91,0.08,,,1.10,WUHU216HW,2013-02-07 15:36:00,
2013-02-07 09:41:00,48.1,45.6,29.88,South,180,0.0,0.0,91,0.07,,,1.10,WUHU216HW,2013-02-07 15:41:00,
2013-02-07 09:46:00,48.1,45.6,29.88,South,180,0.0,0.0,91,0.07,,,1.11,WUHU216HW,2013-02-07 15:46:00,
2013-02-07 09:51:00,48.1,45.6,29.88,South,180,0.0,0.0,91,0.07,,,1.11,WUHU216HW,2013-02-07 15:51:00,
2013-02-07 09:56:00,47.9,45.5,29.88,South,180,0.0,0.0,91,0.07,,,1.11,WUHU216HW,2013-02-07 15:56:00,
2013-02-07 10:01:00,47.9,45.5,29.88,South,180,0.0,0.0,91,0.07,,,1.12,WUHU216HW,2013-02-07 16:01:00,
2013-02-07 10:07:00,47.9,45.5,29.88,South,180,0.0,0.0,91,0.06,,,1.12,WUHU216HW,2013-02-07 16:07:00,
2013-02-07 10:12:00,47.7,45.3,29.89,South,180,0.0,0.0,91,0.06,,,1.12,WUHU216HW,2013-02-07 16:12:00,
2013-02-07 10:17:00,47.5,45.1,29.90,South,180,0.0,0.0,91,0.04,,,1.12,WUHU216HW,2013-02-07 16:17:00,
2013-02-07 10:22:00,47.3,44.9,29.90,South,180,0.0,0.0,91,0.03,,,1.12,WUHU216HW,2013-02-07 16:22:00,
2013-02-07 10:27:00,47.0,44.6,29.91,South,180,0.0,0.0,91,0.03,,,1.13,WUHU216HW,2013-02-07 16:27:00,
2013-02-07 10:32:00,46.4,43.7,29.90,South,180,0.0,0.0,90,0.03,,,1.13,WUHU216HW,2013-02-07 16:32:00,
2013-02-07 10:37:00,46.1,43.4,29.90,South,180,0.0,0.0,90,0.04,,,1.14,WUHU216HW,2013-02-07 16:37:00,
2013-02-07 10:42:00,45.5,42.8,29.91,South,180,0.0,0.0,90,0.03,,,1.14,WUHU216HW,2013-02-07 16:42:00,
2013-02-07 10:48:00,45.2,42.5,29.90,South,180,0.0,0.0,90,0.03,,,1.14,WUHU216HW,2013-02-07 16:48:00,
2013-02-07 10:53:00,45.0,42.3,29.90,South,180,0.0,0.0,90,0.03,,,1.14,WUHU216HW,2013-02-07 16:53:00,
2013-02-07 10:58:00,44.6,41.9,29.91,South,180,0.0,0.0,90,0.02,,,1.14,WUHU216HW,2013-02-07 16:58:00,
2013-02-07 11:03:00,44.6,41.9,29.91,South,180,0.0,0.0,90,0.02,,,1.14,WUHU216HW,2013-02-07 17:03:00,
2013-02-07 11:08:00,44.6,41.9,29.90,South,180,0.0,0.0,90,0.02,,,1.14,WUHU216HW,2013-02-07 17:08:00,
2013-02-07 11:13:00,44.6,42.2,29.91,South,180,0.0,0.0,91,0.02,,,1.14,WUHU216HW,2013-02-07 17:13:00,
2013-02-07 11:18:00,44.5,41.5,29.92,South,180,0.0,0.0,89,0.02,,,1.14,WUHU216HW,2013-02-07 17:18:00,
2013-02-07 11:23:00,44.3,41.3,29.91,South,180,0.0,0.0,89,0.02,,,1.14,WUHU216HW,2013-02-07 17:23:00,
2013-02-07 11:28:00,44.3,41.3,29.91,South,180,0.0,0.0,89,0.01,,,1.14,WUHU216HW,2013-02-07 17:28:00,
2013-02-07 11:33:00,44.6,41.9,29.91,South,180,0.0,0.0,90,0.00,,,1.14,WUHU216HW,2013-02-07 17:33:00,
2013-02-07 11:38:00,44.6,41.9,29.91,South,180,0.0,0.0,90,0.00,,,1.14,WUHU216HW,2013-02-07 17:38:00,
2013-02-07 11:43:00,44.5,41.5,29.92,South,180,0.0,0.0,89,0.00,,,1.14,WUHU216HW,2013-02-07 17:43:00,
2013-02-07 11:48:00,44.3,41.3,29.92,South,180,0.0,0.0,89,0.00,,,1.14,WUHU216HW,2013-02-07 17:48:00,
2013-02-07 11:53:00,44.3,41.3,29.92,South,180,0.0,0.0,89,0.00,,,1.14,WUHU216HW,2013-02-07 17:53:00,
2013-02-07 11:58:00,44.3,41.3,29.92,South,180,0.0,0.0,89,0.00,,,1.14,WUHU216HW,2013-02-07 17:58:00,
2013-02-07 12:03:00,44.3,41.3,29.92,South,180,0.0,0.0,89,0.00,,,1.14,WUHU216HW,2013-02-07 18:03:00,
2013-02-07 12:09:00,44.3,41.3,29.92,South,180,0.0,0.0,89,0.00,,,1.14,WUHU216HW,2013-02-07 18:09:00,
2013-02-07 12:14:00,44.3,41.0,29.92,South,180,0.0,0.0,88,0.00,,,1.14,WUHU216HW,2013-02-07 18:14:00,
2013-02-07 12:19:00,44.3,41.3,29.92,South,180,0.0,0.0,89,0.00,,,1.14,WUHU216HW,2013-02-07 18:19:00,
2013-02-07 12:24:00,44.3,41.0,29.93,South,180,0.0,0.0,88,0.00,,,1.14,WUHU216HW,2013-02-07 18:24:00,
2013-02-07 12:29:00,44.5,41.1,29.93,South,180,0.0,0.0,88,0.00,,,1.14,WUHU216HW,2013-02-07 18:29:00,
2013-02-07 12:34:00,44.3,41.3,29.93,South,180,0.0,0.0,89,0.00,,,1.14,WUHU216HW,2013-02-07 18:34:00,
2013-02-07 12:39:00,44.5,41.5,29.93,South,180,0.0,0.0,89,0.00,,,1.14,WUHU216HW,2013-02-07 18:39:00,
2013-02-07 12:44:00,44.5,41.1,29.93,South,180,0.0,0.0,88,0.00,,,1.14,WUHU216HW,2013-02-07 18:44:00,
2013-02-07 12:49:00,44.8,41.9,29.92,South,180,0.0,0.0,89,0.00,,,1.14,WUHU216HW,2013-02-07 18:49:00,
2013-02-07 12:54:00,45.2,42.2,29.92,South,180,0.0,0.0,89,0.00,,,1.14,WUHU216HW,2013-02-07 18:54:00,
2013-02-07 12:59:00,45.2,41.9,29.92,South,180,0.0,0.0,88,0.00,,,1.14,WUHU216HW,2013-02-07 18:59:00,
2013-02-07 13:04:00,45.2,41.9,29.92,South,180,0.0,0.0,88,0.00,,,1.14,WUHU216HW,2013-02-07 19:04:00,
2013-02-07 13:09:00,45.4,42.0,29.92,South,180,0.0,0.0,88,0.00,,,1.14,WUHU216HW,2013-02-07 19:09:00,
2013-02-07 13:14:00,45.7,42.4,29.92,South,180,0.0,0.0,88,0.00,,,1.14,WUHU216HW,2013-02-07 19:14:00,
2013-02-07 13:20:00,45.7,42.4,29.92,South,180,0.0,0.0,88,0.00,,,1.14,WUHU216HW,2013-02-07 19:20:00,
2013-02-07 13:25:00,45.7,42.1,29.92,South,180,0.0,0.0,87,0.00,,,1.14,WUHU216HW,2013-02-07 19:25:00,
2013-02-07 13:30:00,45.5,42.0,29.92,South,180,0.0,0.0,87,0.00,,,1.14,WUHU216HW,2013-02-07 19:30:00,
2013-02-07 13:35:00,45.7,42.1,29.92,South,180,0.0,0.0,87,0.00,,,1.14,WUHU216HW,2013-02-07 19:35:00,
2013-02-07 13:40:00,46.1,42.5,29.92,South,180,0.0,0.0,87,0.00,,,1.14,WUHU216HW,2013-02-07 19:40:00,
2013-02-07 13:45:00,46.4,42.2,29.92,South,180,0.0,0.0,85,0.00,,,1.14,WUHU216HW,2013-02-07 19:45:00,
2013-02-07 13:50:00,46.4,42.2,29.92,South,180,0.0,0.0,85,0.00,,,1.14,WUHU216HW,2013-02-07 19:50:00,
2013-02-07 13:55:00,46.4,42.0,29.92,South,180,0.0,0.0,84,0.00,,,1.14,WUHU216HW,2013-02-07 19:55:00,
2013-02-07 14:00:00,46.4,42.0,29.93,South,180,0.0,0.0,84,0.00,,,1.14,WUHU216HW,2013-02-07 20:00:00,
2013-02-07 14:05:00,46.3,41.4,29.93,South,180,0.0,0.0,83,0.00,,,1.14,WUHU216HW,2013-02-07 20:05:00,
2013-02-07 14:10:00,46.1,41.6,29.94,South,180,0.0,0.0,84,0.00,,,1.14,WUHU216HW,2013-02-07 20:10:00,
2013-02-07 14:15:00,45.7,41.2,29.93,South,180,0.0,0.0,84,0.00,,,1.14,WUHU216HW,2013-02-07 20:15:00,
2013-02-07 14:20:00,45.7,40.9,29.93,South,180,0.0,0.0,83,0.00,,,1.14,WUHU216HW,2013-02-07 20:20:00,
2013-02-07 14:25:00,45.7,41.2,29.93,South,180,0.0,0.0,84,0.00,,,1.14,WUHU216HW,2013-02-07 20:25:00,
2013-02-07 14:30:00,45.7,41.2,29.93,South,180,0.0,0.0,84,0.00,,,1.14,WUHU216HW,2013-02-07 20:30:00,
2013-02-07 14:35:00,45.5,40.7,29.93,South,180,0.0,0.0,83,0.00,,,1.14,WUHU216HW,2013-02-07 20:35:00,
2013-02-07 14:40:00,45.4,40.5,29.94,South,180,0.0,0.0,83,0.00,,,1.14,WUHU216HW,2013-02-07 20:40:00,
2013-02-07 14:45:00,45.2,40.3,29.94,South,180,0.0,0.0,83,0.00,,,1.14,WUHU216HW,2013-02-07 20:45:00,
2013-02-07 14:50:00,45.0,40.5,29.94,South,180,0.0,0.0,84,0.00,,,1.14,WUHU216HW,2013-02-07 20:50:00,
2013-02-07 14:55:00,45.2,40.7,29.94,South,180,0.0,0.0,84,0.00,,,1.14,WUHU216HW,2013-02-07 20:55:00,
2013-02-07 15:00:00,45.2,40.7,29.94,South,180,0.0,0.0,84,0.00,,,1.14,WUHU216HW,2013-02-07 21:00:00,
2013-02-07 15:05:00,45.4,40.9,29.94,South,180,0.0,0.0,84,0.00,,,1.14,WUHU216HW,2013-02-07 21:05:00,
2013-02-07 15:10:00,45.4,40.9,29.94,South,180,0.0,0.0,84,0.00,,,1.14,WUHU216HW,2013-02-07 21:10:00,
2013-02-07 15:16:00,45.5,41.1,29.94,South,180,0.0,0.0,84,0.00,,,1.14,WUHU216HW,2013-02-07 21:16:00,
2013-02-07 15:21:00,45.5,40.7,29.94,South,180,0.0,0.0,83,0.00,,,1.14,WUHU216HW,2013-02-07 21:21:00,
2013-02-07 15:26:00,45.4,40.5,29.95,South,180,0.0,0.0,83,0.00,,,1.14,WUHU216HW,2013-02-07 21:26:00,
2013-02-07 15:31:00,45.2,40.1,29.95,South,180,0.0,0.0,82,0.00,,,1.14,WUHU216HW,2013-02-07 21:31:00,
2013-02-07 15:36:00,45.2,40.3,29.95,South,180,0.0,0.0,83,0.00,,,1.14,WUHU216HW,2013-02-07 21:36:00,
2013-02-07 15:41:00,45.4,40.2,29.95,South,180,0.0,0.0,82,0.00,,,1.14,WUHU216HW,2013-02-07 21:41:00,
2013-02-07 15:46:00,45.4,39.9,29.95,South,180,0.0,0.0,81,0.00,,,1.14,WUHU216HW,2013-02-07 21:46:00,
2013-02-07 15:51:00,45.4,39.9,29.95,South,180,0.0,0.0,81,0.00,,,1.14,WUHU216HW,2013-02-07 21:51:00,
2013-02-07 15:56:00,45.2,39.4,29.95,South,180,0.0,0.0,80,0.00,,,1.14,WUHU216HW,2013-02-07 21:56:00,
2013-02-07 16:02:00,45.4,39.6,29.96,South,180,0.0,0.0,80,0.00,,,1.14,WUHU216HW,2013-02-07 22:02:00,
2013-02-07 16:07:00,45.2,39.4,29.96,South,180,0.0,0.0,80,0.00,,,1.14,WUHU216HW,2013-02-07 22:07:00,
2013-02-07 16:12:00,45.0,39.2,29.96,South,180,0.0,0.0,80,0.00,,,1.14,WUHU216HW,2013-02-07 22:12:00,
2013-02-07 16:17:00,44.8,39.1,29.97,South,180,0.0,0.0,80,0.00,,,1.14,WUHU216HW,2013-02-07 22:17:00,
2013-02-07 16:22:00,44.6,38.5,29.97,South,180,0.0,0.0,79,0.00,,,1.14,WUHU216HW,2013-02-07 22:22:00,
2013-02-07 16:27:00,44.5,38.3,29.97,South,180,0.0,0.0,79,0.00,,,1.14,WUHU216HW,2013-02-07 22:27:00,
2013-02-07 16:32:00,44.3,38.2,29.97,South,180,0.0,0.0,79,0.00,,,1.14,WUHU216HW,2013-02-07 22:32:00,
2013-02-07 16:37:00,44.3,38.2,29.97,South,180,0.0,0.0,79,0.00,,,1.14,WUHU216HW,2013-02-07 22:37:00,
2013-02-07 16:42:00,44.3,38.2,29.97,South,180,0.0,0.0,79,0.00,,,1.14,WUHU216HW,2013-02-07 22:42:00,
2013-02-07 16:47:00,44.3,37.8,29.98,South,180,0.0,0.0,78,0.00,,,1.14,WUHU216HW,2013-02-07 22:47:00,
2013-02-07 16:52:00,44.1,37.7,29.98,South,180,0.0,0.0,78,0.00,,,1.14,WUHU216HW,2013-02-07 22:52:00,
2013-02-07 16:57:00,44.1,37.7,29.98,South,180,0.0,0.0,78,0.00,,,1.14,WUHU216HW,2013-02-07 22:57:00,
2013-02-07 17:02:00,44.1,37.7,29.99,South,180,0.0,0.0,78,0.00,,,1.14,WUHU216HW,2013-02-07 23:02:00,
2013-02-07 17:07:00,44.1,37.7,29.99,South,180,0.0,0.0,78,0.00,,,1.14,WUHU216HW,2013-02-07 23:07:00,
2013-02-07 17:12:00,43.7,37.0,30.00,South,180,0.0,0.0,77,0.00,,,1.14,WUHU216HW,2013-02-07 23:12:00,
2013-02-07 17:17:00,43.6,36.8,30.00,South,180,0.0,0.0,77,0.00,,,1.14,WUHU216HW,2013-02-07 23:17:00,
2013-02-07 17:23:00,43.2,36.1,30.00,South,180,0.0,0.0,76,0.00,,,1.14,WUHU216HW,2013-02-07 23:23:00,
2013-02-07 17:28:00,43.2,36.5,30.00,South,180,0.0,0.0,77,0.00,,,1.14,WUHU216HW,2013-02-07 23:28:00,
2013-02-07 17:33:00,42.8,36.1,30.01,South,180,0.0,0.0,77,0.00,,,1.14,WUHU216HW,2013-02-07 23:33:00,
2013-02-07 17:38:00,42.8,36.1,30.01,South,180,0.0,0.0,77,0.00,,,1.14,WUHU216HW,2013-02-07 23:38:00,
2013-02-07 17:43:00,42.5,35.7,30.01,South,180,0.0,0.0,77,0.00,,,1.14,WUHU216HW,2013-02-07 23:43:00,
2013-02-07 17:48:00,42.1,35.4,30.01,South,180,0.0,0.0,77,0.00,,,1.14,WUHU216HW,2013-02-07 23:48:00,
2013-02-07 17:53:00,41.9,35.6,30.01,South,180,0.0,0.0,78,0.00,,,1.14,WUHU216HW,2013-02-07 23:53:00,
2013-02-07 17:58:00,41.8,35.4,30.02,South,180,0.0,0.0,78,0.00,,,1.14,WUHU216HW,2013-02-07 23:58:00,
2013-02-07 18:03:00,41.4,35.0,30.02,South,180,0.0,0.0,78,0.00,,,1.14,WUHU216HW,2013-02-08 00:03:00,
2013-02-07 18:08:00,41.2,34.8,30.02,South,180,0.0,0.0,78,0.00,,,1.14,WUHU216HW,2013-02-08 00:08:00,
2013-02-07 18:13:00,41.0,34.9,30.02,South,180,0.0,0.0,79,0.00,,,1.14,WUHU216HW,2013-02-08 00:13:00,
2013-02-07 18:18:00,40.7,34.7,30.03,South,180,0.0,0.0,79,0.00,,,1.14,WUHU216HW,2013-02-08 00:18:00,
2013-02-07 18:24:00,40.7,34.7,30.03,South,180,0.0,0.0,79,0.00,,,1.14,WUHU216HW,2013-02-08 00:24:00,
2013-02-07 18:29:00,40.5,34.5,30.04,South,180,0.0,0.0,79,0.00,,,1.14,WUHU216HW,2013-02-08 00:29:00,
2013-02-07 18:34:00,40.3,34.7,30.04,South,180,0.0,0.0,80,0.00,,,1.14,WUHU216HW,2013-02-08 00:34:00,
2013-02-07 18:39:00,40.1,34.5,30.05,South,180,0.0,0.0,80,0.00,,,1.14,WUHU216HW,2013-02-08 00:39:00,
2013-02-07 18:44:00,40.0,34.3,30.05,South,180,0.0,0.0,80,0.00,,,1.14,WUHU216HW,2013-02-08 00:44:00,
2013-02-07 18:49:00,40.0,34.3,30.05,South,180,0.0,0.0,80,0.00,,,1.14,WUHU216HW,2013-02-08 00:49:00,
2013-02-07 18:54:00,39.6,34.0,30.05,South,180,0.0,0.0,80,0.00,,,1.14,WUHU216HW,2013-02-08 00:54:00,
2013-02-07 18:59:00,39.4,33.9,30.05,South,180,0.0,0.0,80,0.00,,,1.14,WUHU216HW,2013-02-08 00:59:00,
2013-02-07 19:04:00,39.2,33.7,30.06,South,180,0.0,0.0,80,0.00,,,1.14,WUHU216HW,2013-02-08 01:04:00,
2013-02-07 19:09:00,39.2,33.7,30.06,South,180,0.0,0.0,80,0.00,,,1.14,WUHU216HW,2013-02-08 01:09:00,
2013-02-07 19:14:00,39.1,33.5,30.06,South,180,0.0,0.0,80,0.00,,,1.14,WUHU216HW,2013-02-08 01:14:00,
2013-02-07 19:19:00,38.9,33.3,30.07,South,180,0.0,0.0,80,0.00,,,1.14,WUHU216HW,2013-02-08 01:19:00,
2013-02-07 19:24:00,38.7,33.4,30.07,South,180,0.0,0.0,81,0.00,,,1.14,WUHU216HW,2013-02-08 01:24:00,
2013-02-07 19:29:00,38.5,32.9,30.07,South,180,0.0,0.0,80,0.00,,,1.14,WUHU216HW,2013-02-08 01:29:00,
2013-02-07 19:34:00,38.2,32.6,30.07,South,180,0.0,0.0,80,0.00,,,1.14,WUHU216HW,2013-02-08 01:34:00,
2013-02-07 19:40:00,37.8,32.2,30.08,South,180,0.0,0.0,80,0.00,,,1.14,WUHU216HW,2013-02-08 01:40:00,
2013-02-07 19:45:00,37.6,32.0,30.08,South,180,0.0,0.0,80,0.00,,,1.14,WUHU216HW,2013-02-08 01:45:00,
2013-02-07 19:50:00,37.4,32.1,30.08,South,180,0.0,0.0,81,0.00,,,1.14,WUHU216HW,2013-02-08 01:50:00,
2013-02-07 19:55:00,37.4,32.1,30.08,South,180,0.0,0.0,81,0.00,,,1.14,WUHU216HW,2013-02-08 01:55:00,
2013-02-07 20:00:00,37.1,31.8,30.08,South,180,0.0,0.0,81,0.00,,,1.14,WUHU216HW,2013-02-08 02:00:00,
2013-02-07 20:05:00,37.1,31.8,30.09,South,180,0.0,0.0,81,0.00,,,1.14,WUHU216HW,2013-02-08 02:05:00,
2013-02-07 20:10:00,36.9,31.6,30.09,South,180,0.0,0.0,81,0.00,,,1.14,WUHU216HW,2013-02-08 02:10:00,
2013-02-07 20:15:00,36.9,31.6,30.08,South,180,0.0,0.0,81,0.00,,,1.14,WUHU216HW,2013-02-08 02:15:00,
2013-02-07 20:20:00,36.7,31.4,30.09,South,180,0.0,0.0,81,0.00,,,1.14,WUHU216HW,2013-02-08 02:20:00,
2013-02-07 20:25:00,36.7,31.4,30.09,South,180,0.0,0.0,81,0.00,,,1.14,WUHU216HW,2013-02-08 02:25:00,
2013-02-07 20:30:00,36.7,31.4,30.09,South,180,0.0,0.0,81,0.00,,,1.14,WUHU216HW,2013-02-08 02:30:00,
2013-02-07 20:36:00,36.7,31.7,30.09,South,180,0.0,0.0,82,0.00,,,1.14,WUHU216HW,2013-02-08 02:36:00,
2013-02-07 20:41:00,36.5,31.2,30.10,South,180,0.0,0.0,81,0.00,,,1.14,WUHU216HW,2013-02-08 02:41:00,
2013-02-07 20:46:00,36.4,31.1,30.10,South,180,0.0,0.0,81,0.00,,,1.14,WUHU216HW,2013-02-08 02:46:00,
2013-02-07 20:51:00,36.0,30.7,30.10,South,180,0.0,0.0,81,0.00,,,1.14,WUHU216HW,2013-02-08 02:51:00,
2013-02-07 20:56:00,35.6,30.3,30.11,South,180,0.0,0.0,81,0.00,,,1.14,WUHU216HW,2013-02-08 02:56:00,
2013-02-07 21:01:00,35.6,30.3,30.11,South,180,0.0,0.0,81,0.00,,,1.14,WUHU216HW,2013-02-08 03:01:00,
2013-02-07 21:06:00,35.5,30.2,30.11,South,180,0.0,0.0,81,0.00,,,1.14,WUHU216HW,2013-02-08 03:06:00,
2013-02-07 21:11:00,35.5,30.2,30.11,South,180,0.0,0.0,81,0.00,,,1.14,WUHU216HW,2013-02-08 03:11:00,
2013-02-07 21:16:00,35.3,30.2,30.11,South,180,0.0,0.0,82,0.00,,,1.14,WUHU216HW,2013-02-08 03:16:00,
2013-02-07 21:21:00,35.3,30.2,30.11,South,180,0.0,0.0,82,0.00,,,1.14,WUHU216HW,2013-02-08 03:21:00,
2013-02-07 21:26:00,35.1,29.8,30.11,South,180,0.0,0.0,81,0.00,,,1.14,WUHU216HW,2013-02-08 03:26:00,
2013-02-07 21:31:00,34.9,29.6,30.11,South,180,0.0,0.0,81,0.00,,,1.14,WUHU216HW,2013-02-08 03:31:00,
2013-02-07 21:36:00,34.7,29.4,30.12,South,180,0.0,0.0,81,0.00,,,1.14,WUHU216HW,2013-02-08 03:36:00,
2013-02-07 21:41:00,34.7,29.4,30.12,South,180,0.0,0.0,81,0.00,,,1.14,WUHU216HW,2013-02-08 03:41:00,
2013-02-07 21:47:00,34.9,29.9,30.12,South,180,0.0,0.0,82,0.00,,,1.14,WUHU216HW,2013-02-08 03:47:00,
2013-02-07 21:52:00,34.9,29.6,30.12,South,180,0.0,0.0,81,0.00,,,1.14,WUHU216HW,2013-02-08 03:52:00,
2013-02-07 21:57:00,34.7,29.4,30.12,South,180,0.0,0.0,81,0.00,,,1.14,WUHU216HW,2013-02-08 03:57:00,
2013-02-07 22:02:00,34.6,29.0,30.13,South,180,0.0,0.0,80,0.00,,,1.14,WUHU216HW,2013-02-08 04:02:00,
2013-02-07 22:07:00,34.4,28.8,30.13,South,180,0.0,0.0,80,0.00,,,1.14,WUHU216HW,2013-02-08 04:07:00,
2013-02-07 22:12:00,34.2,28.6,30.13,South,180,0.0,0.0,80,0.00,,,1.14,WUHU216HW,2013-02-08 04:12:00,
2013-02-07 22:17:00,34.0,28.4,30.13,South,180,0.0,0.0,80,0.00,,,1.14,WUHU216HW,2013-02-08 04:17:00,
2013-02-07 22:22:00,34.0,28.4,30.13,South,180,0.0,0.0,80,0.00,,,1.14,WUHU216HW,2013-02-08 04:22:00,
2013-02-07 22:27:00,33.8,28.3,30.14,South,180,0.0,0.0,80,0.00,,,1.14,WUHU216HW,2013-02-08 04:27:00,
2013-02-07 22:32:00,33.7,28.1,30.14,South,180,0.0,0.0,80,0.00,,,1.14,WUHU216HW,2013-02-08 04:32:00,
2013-02-07 22:37:00,33.7,28.1,30.14,South,180,0.0,0.0,80,0.00,,,1.14,WUHU216HW,2013-02-08 04:37:00,
2013-02-07 22:42:00,33.5,27.9,30.14,South,180,0.0,0.0,80,0.00,,,1.14,WUHU216HW,2013-02-08 04:42:00,
2013-02-07 22:47:00,33.5,27.9,30.14,South,180,0.0,0.0,80,0.00,,,1.14,WUHU216HW,2013-02-08 04:47:00,
2013-02-07 22:53:00,33.5,27.9,30.14,South,180,0.0,0.0,80,0.00,,,1.14,WUHU216HW,2013-02-08 04:53:00,
2013-02-07 22:58:00,33.5,27.9,30.15,South,180,0.0,0.0,80,0.00,,,1.14,WUHU216HW,2013-02-08 04:58:00,
2013-02-07 23:00:00,33.5,27.9,30.15,South,180,0.0,0.0,80,0.00,,,1.14,WUHU216HW,2013-02-08 05:00:00,
2013-02-07 23:05:00,33.5,28.3,30.15,South,180,0.0,0.0,81,0.00,,,1.14,WUHU216HW,2013-02-08 05:05:00,
2013-02-07 23:10:00,33.5,28.3,30.15,South,180,0.0,0.0,81,0.00,,,1.14,WUHU216HW,2013-02-08 05:10:00,
2013-02-07 23:15:00,33.5,28.3,30.15,South,180,0.0,0.0,81,0.00,,,1.14,WUHU216HW,2013-02-08 05:15:00,
2013-02-07 23:20:00,33.3,28.1,30.16,South,180,0.0,0.0,81,0.00,,,1.14,WUHU216HW,2013-02-08 05:20:00,
2013-02-07 23:25:00,33.1,27.6,30.15,South,180,0.0,0.0,80,0.00,,,1.14,WUHU216HW,2013-02-08 05:25:00,
2013-02-07 23:30:00,32.9,27.7,30.15,South,180,0.0,0.0,81,0.00,,,1.14,WUHU216HW,2013-02-08 05:30:00,
2013-02-07 23:36:00,32.9,27.7,30.15,South,180,0.0,0.0,81,0.00,,,1.14,WUHU216HW,2013-02-08 05:36:00,
2013-02-07 23:41:00,32.9,27.7,30.15,South,180,0.0,0.0,81,0.00,,,1.14,WUHU216HW,2013-02-08 05:41:00,
2013-02-07 23:46:00,32.9,28.0,30.16,South,180,0.0,0.0,82,0.00,,,1.14,WUHU216HW,2013-02-08 05:46:00,
2013-02-07 23:51:00,32.9,27.7,30.16,South,180,0.0,0.0,81,0.00,,,1.14,WUHU216HW,2013-02-08 05:51:00,
2013-02-07 23:56:00,32.9,27.7,30.16,South,180,0.0,0.0,81,0.00,,,1.14,WUHU216HW,2013-02-08 05:56:00,